sat.trackr.live / text

‹ back to catalog

STARLINK-32600

NORAD 62178 · 2024-225R

PAYLOAD ACTIVE UNKNOWN

§ Identity

Operator
Country
US
Launch date
2024-11-30
Launch site
AFWTR
Launch vehicle
Mass (kg)
RCS (m²)

Purposes: comms

External: N2YO · Heavens-Above · Gunter

§ Orbital elements

Epoch: 2026-09-21T17:36:52.705440Z

Period
94.14 min
Inclination
70.0011°
Eccentricity
0.0003808
Mean motion
15.29586773 rev/d
Perigee alt
474.4 km
Apogee alt
479.7 km
Semi-major
6,855.2 km
B*
8.0900e-4
RAAN
17.6366°
Arg perigee
271.7189°
Mean anomaly
88.3549°
Rev number
9,955

§ Raw data

STARLINK-326001 62178U 24225R   26264.73394335  .00023206  00000+0  80900-3 0  99982 62178  70.0011  17.6366 0003808 271.7189  88.3549 15.29586773 99556

JSON: /api/v1/satellites/62178 · /tle

For live sub-satellite position, see the globe view (requires WebGL).

§ Visibility from observer

Set your observer location to see the next 7 days of passes ≥ 10°. The values pass through the URL so the page stays shareable.

No JS? Fill the form by hand. The geolocation button needs JavaScript.